{"data":{"norad_id":59072,"intl_designator":"2024-039V","name":"MARAFON-D GVM","alt_names":[],"object_type":"PAYLOAD","status":"ACTIVE","operator":null,"country":"CIS","launch_date":"2024-02-29","launch_site_code":"VOSTO","launch_vehicle":null,"mission":null,"orbit_class":"UNKNOWN","rcs_meters":null,"size_class":null,"mass_kg":null,"dimensions":null,"purposes":[],"wikipedia_slug":null,"has_3d_model":false,"image_url":null,"decayed_at":null,"tle_current":{"epoch":"2026-05-25T04:30:58.796064Z","epoch_age_seconds":65582,"freshness":"FRESH","line1":"1 59072U 24039V   26145.18818051  .00000242  00000+0  63367-4 0  9997","line2":"2 59072  88.9807 286.6198 0018617  59.0785 301.2246 14.45998676117862","mean_motion":14.45998676,"eccentricity":0.0018617,"inclination_deg":88.9807,"raan_deg":286.6198,"arg_perigee_deg":59.0785,"mean_anomaly_deg":301.2246,"bstar":6.3367e-5,"rev_number":11786,"period_min":99.58515342375,"perigee_km":725.49788825729,"apogee_km":751.9968956022,"semimajor_km":7116.8843919297,"source":"CELESTRAK","updated_at":"2026-05-25T13:38:01.161542Z"}}}